Weather in Ivje

Belarus     53°55′51″N   25°46′12″E
temp.,
°C
wind,
m/s
gust,
m/s
humid.,
%
clouds,
%
prec.,
mm/h
press.,
hPa
HPBL,
m
22 january, sat
sat2200:00−4nw7148699 0.1 1004823
03:00−4nw61293100 0.2 1004841
06:00−4nnw5119392 0.3 1006603
09:00−6nnw5129188 0.3 1009435
12:00−4n61186100 0.0 1013794
15:00−3nnw61185100 0.1 1014941
18:00−4nnw71386100 0.0 1016686
21:00−5nnw6138780 0.0 1018710
23 january, sun
sun2300:00−6nnw5119074 0.0 1019426
03:00−7nnw5119372 0.0 1021357
06:00−9nnw379663 0.0 1023137
09:00−10n379648 0.0 1027135
12:00−8ne37885 0.0 1029290
15:00−6nne35845 0.0 1031352
18:00−10nne22967 0.0 103311
21:00−12nne229628 0.0 103631
24 january, mon
mon2400:00−13e129728 0.0 103714
03:00−13se119859 0.0 103810
06:00−14ssw119756 0.0 103810
09:00−14sw119756 0.0 103815
12:00−9ssw23895 0.0 1038131
15:00−6ssw34835 0.0 1036289
18:00−10ssw22955 0.0 103514
21:00−10ssw379631 0.0 1033112
25 january, tue
tue2500:00−10ssw3109426 0.0 1032174
03:00−7ssw41094100 0.1 1028239
06:00−5sw4996100 0.5 1025286
09:00−4sw4896100 0.8 1023273
12:00−2sw4897100 0.3 1021274
15:000wsw3998100 1.0 1019382
18:00+1nnw51198100 0.9 1019630
21:00−3nnw5129037 0.9 1021389
26 january, wed
wed2600:00−6n4109357 0.0 1023276
03:00−6n599399 0.0 1025428
06:00−5n478665 0.1 1026414
09:00−10nw379622 0.1 1027103
12:00−7nnw24915 0.0 1027148
15:00−4wnw24865 0.0 1025271
18:00−7sw2497100 0.0 102463
21:00−6ssw4896100 0.0 1021215